Time,TemperatureF,DewpointF,PressureIn,WindDirection,WindDirectionDegrees,WindSpeedMPH,WindSpeedGustMPH,Humidity,HourlyPrecipIn,Conditions,Clouds,dailyrainin,SoftwareType,DateUTC
2013-02-12 00:05:00,35.8,-55.7,29.55,West,270,3.7,-999.0,1,-99.99,,,0.00,Acu-Link.com,2013-02-12 05:05:00,
2013-02-12 00:20:00,34.9,-56.3,29.55,West,270,2.2,-999.0,1,-99.99,,,0.00,Acu-Link.com,2013-02-12 05:20:00,
2013-02-12 00:35:00,32.7,-57.6,29.55,West,270,4.7,-999.0,1,-99.99,,,0.00,Acu-Link.com,2013-02-12 05:35:00,
2013-02-12 00:50:00,31.6,-58.3,29.54,NNW,337,11.4,-999.0,1,-99.99,,,0.00,Acu-Link.com,2013-02-12 05:50:00,
2013-02-12 01:06:00,31.3,-58.5,29.54,NW,315,5.3,-999.0,1,-99.99,,,0.00,Acu-Link.com,2013-02-12 06:06:00,
2013-02-12 01:22:00,31.3,-58.5,29.54,NNW,337,4.7,-999.0,1,-99.99,,,0.00,Acu-Link.com,2013-02-12 06:22:00,
2013-02-12 01:37:00,31.1,-58.6,29.54,North,0,4.2,-999.0,1,-99.99,,,0.00,Acu-Link.com,2013-02-12 06:37:00,
2013-02-12 01:52:00,30.9,-58.8,29.55,West,270,1.7,-999.0,1,-99.99,,,0.00,Acu-Link.com,2013-02-12 06:52:00,
2013-02-12 02:07:00,30.6,-58.9,29.55,NNE,22,3.7,-999.0,1,-99.99,,,0.00,Acu-Link.com,2013-02-12 07:07:00,
2013-02-12 02:23:00,30.6,-58.9,29.57,NE,45,5.3,-999.0,1,-99.99,,,0.00,Acu-Link.com,2013-02-12 07:23:00,
2013-02-12 02:38:00,30.6,-58.9,29.57,NE,45,2.2,-999.0,1,-99.99,,,0.00,Acu-Link.com,2013-02-12 07:38:00,
2013-02-12 02:56:00,30.6,-58.9,29.57,NW,315,3.2,-999.0,1,-99.99,,,0.00,Acu-Link.com,2013-02-12 07:56:00,
2013-02-12 03:34:00,30.6,-58.9,29.57,NNE,22,4.2,-999.0,1,-99.99,,,0.00,Acu-Link.com,2013-02-12 08:34:00,
2013-02-12 03:50:00,30.6,-58.9,29.57,North,0,7.8,-999.0,1,-99.99,,,0.00,Acu-Link.com,2013-02-12 08:50:00,
2013-02-12 04:19:00,30.6,-58.9,29.56,WNW,292,2.2,-999.0,1,-99.99,,,0.00,Acu-Link.com,2013-02-12 09:19:00,
2013-02-12 04:34:00,30.6,-58.9,29.57,NNW,337,8.9,-999.0,1,-99.99,,,0.00,Acu-Link.com,2013-02-12 09:34:00,
2013-02-12 04:49:00,30.6,-58.9,29.56,NNE,22,1.7,-999.0,1,-99.99,,,0.00,Acu-Link.com,2013-02-12 09:49:00,
2013-02-12 05:05:00,30.4,-59.1,29.57,East,90,3.2,-999.0,1,-99.99,,,0.00,Acu-Link.com,2013-02-12 10:05:00,
2013-02-12 05:20:00,30.2,-59.2,29.57,NE,45,6.8,-999.0,1,-99.99,,,0.00,Acu-Link.com,2013-02-12 10:20:00,
2013-02-12 05:35:00,30.2,-59.2,29.57,NNW,337,8.3,-999.0,1,-99.99,,,0.00,Acu-Link.com,2013-02-12 10:35:00,
2013-02-12 05:51:00,30.2,-59.2,29.57,NW,315,6.8,-999.0,1,-99.99,,,0.00,Acu-Link.com,2013-02-12 10:51:00,
2013-02-12 06:06:00,30.2,-59.2,29.59,NNW,337,4.7,-999.0,1,-99.99,,,0.00,Acu-Link.com,2013-02-12 11:06:00,
2013-02-12 06:21:00,30.2,-59.2,29.58,NNW,337,4.7,-999.0,1,-99.99,,,0.00,Acu-Link.com,2013-02-12 11:21:00,
2013-02-12 06:36:00,30.2,-59.2,29.60,NNW,337,2.2,-999.0,1,-99.99,,,0.00,Acu-Link.com,2013-02-12 11:36:00,
2013-02-12 06:51:00,30.2,-59.2,29.59,NNE,22,3.2,-999.0,1,-99.99,,,0.00,Acu-Link.com,2013-02-12 11:51:00,
2013-02-12 07:06:00,30.2,-59.2,29.59,NW,315,7.3,-999.0,1,-99.99,,,0.00,Acu-Link.com,2013-02-12 12:06:00,
2013-02-12 07:22:00,30.0,-59.3,29.59,West,270,3.2,-999.0,1,-99.99,,,0.00,Acu-Link.com,2013-02-12 12:22:00,
2013-02-12 07:37:00,30.0,-59.3,29.59,NW,315,4.7,-999.0,1,-99.99,,,0.00,Acu-Link.com,2013-02-12 12:37:00,
2013-02-12 07:54:00,30.0,-59.3,29.57,NNW,337,10.9,-999.0,1,-99.99,,,0.00,Acu-Link.com,2013-02-12 12:54:00,
2013-02-12 08:09:00,30.2,-59.2,29.59,NNW,337,7.8,-999.0,1,-99.99,,,0.00,Acu-Link.com,2013-02-12 13:09:00,
2013-02-12 08:24:00,30.0,-59.3,29.59,NNE,22,12.5,-999.0,1,-99.99,,,0.00,Acu-Link.com,2013-02-12 13:24:00,
2013-02-12 08:39:00,29.8,-59.4,29.61,NW,315,12.5,-999.0,1,-99.99,,,0.00,Acu-Link.com,2013-02-12 13:39:00,
2013-02-12 08:55:00,30.2,-59.2,29.59,North,0,6.3,-999.0,1,-99.99,,,0.00,Acu-Link.com,2013-02-12 13:55:00,
2013-02-12 09:10:00,30.4,-59.1,29.60,North,0,6.8,-999.0,1,-99.99,,,0.00,Acu-Link.com,2013-02-12 14:10:00,
2013-02-12 09:25:00,30.0,-59.3,29.59,NNE,22,14.5,-999.0,1,-99.99,,,0.00,Acu-Link.com,2013-02-12 14:25:00,
2013-02-12 09:42:00,30.0,-59.3,29.61,NNE,22,6.8,-999.0,1,-99.99,,,0.00,Acu-Link.com,2013-02-12 14:42:00,
2013-02-12 09:57:00,29.8,-59.4,29.60,North,0,13.0,-999.0,1,-99.99,,,0.00,Acu-Link.com,2013-02-12 14:57:00,
2013-02-12 10:12:00,30.7,-58.9,29.62,North,0,6.3,-999.0,1,-99.99,,,0.00,Acu-Link.com,2013-02-12 15:12:00,
2013-02-12 10:28:00,30.2,-59.2,29.61,NNE,22,7.8,-999.0,1,-99.99,,,0.00,Acu-Link.com,2013-02-12 15:28:00,
2013-02-12 10:43:00,30.4,-59.1,29.62,WNW,292,16.6,-999.0,1,-99.99,,,0.00,Acu-Link.com,2013-02-12 15:43:00,
2013-02-12 10:58:00,30.4,-59.1,29.59,NNW,337,13.5,-999.0,1,-99.99,,,0.00,Acu-Link.com,2013-02-12 15:58:00,
2013-02-12 11:13:00,30.4,-59.1,29.61,West,270,12.5,-999.0,1,-99.99,,,0.00,Acu-Link.com,2013-02-12 16:13:00,
2013-02-12 11:29:00,30.6,-58.9,29.61,ENE,67,11.9,-999.0,1,-99.99,,,0.00,Acu-Link.com,2013-02-12 16:29:00,
2013-02-12 11:44:00,30.6,-58.9,29.62,NW,315,4.7,-999.0,1,-99.99,,,0.00,Acu-Link.com,2013-02-12 16:44:00,
2013-02-12 11:59:00,30.6,-58.9,29.62,NNW,337,8.3,-999.0,1,-99.99,,,0.00,Acu-Link.com,2013-02-12 16:59:00,
2013-02-12 12:14:00,30.7,-58.9,29.65,North,0,9.9,-999.0,1,-99.99,,,0.00,Acu-Link.com,2013-02-12 17:14:00,
2013-02-12 12:29:00,30.7,-58.9,29.63,West,270,12.5,-999.0,1,-99.99,,,0.00,Acu-Link.com,2013-02-12 17:29:00,
2013-02-12 12:44:00,30.7,-58.9,29.62,West,270,15.0,-999.0,1,-99.99,,,0.00,Acu-Link.com,2013-02-12 17:44:00,
2013-02-12 13:00:00,30.6,-58.9,29.65,NW,315,10.9,-999.0,1,-99.99,,,0.00,Acu-Link.com,2013-02-12 18:00:00,
2013-02-12 13:15:00,30.6,-58.9,29.64,West,270,10.4,-999.0,1,-99.99,,,0.00,Acu-Link.com,2013-02-12 18:15:00,
2013-02-12 13:30:00,30.6,-58.9,29.65,West,270,13.5,-999.0,1,-99.99,,,0.00,Acu-Link.com,2013-02-12 18:30:00,
2013-02-12 13:45:00,30.7,-58.9,29.64,West,270,9.9,-999.0,1,-99.99,,,0.00,Acu-Link.com,2013-02-12 18:45:00,
2013-02-12 14:01:00,30.6,-58.9,29.66,NW,315,15.0,-999.0,1,-99.99,,,0.00,Acu-Link.com,2013-02-12 19:01:00,
2013-02-12 14:16:00,30.6,-58.9,29.67,West,270,6.3,-999.0,1,-99.99,,,0.00,Acu-Link.com,2013-02-12 19:16:00,
2013-02-12 14:31:00,30.6,-58.9,29.67,NE,45,6.8,-999.0,1,-99.99,,,0.00,Acu-Link.com,2013-02-12 19:31:00,
2013-02-12 14:46:00,30.6,-58.9,29.67,NNW,337,4.7,-999.0,1,-99.99,,,0.00,Acu-Link.com,2013-02-12 19:46:00,
2013-02-12 15:01:00,30.6,-58.9,29.68,NW,315,5.8,-999.0,1,-99.99,,,0.00,Acu-Link.com,2013-02-12 20:01:00,
2013-02-12 15:16:00,30.6,-58.9,29.69,North,0,2.2,-999.0,1,-99.99,,,0.00,Acu-Link.com,2013-02-12 20:16:00,
2013-02-12 15:32:00,30.4,-59.1,29.69,WNW,292,6.8,-999.0,1,-99.99,,,0.00,Acu-Link.com,2013-02-12 20:32:00,
2013-02-12 15:47:00,30.2,-59.2,29.69,NNE,22,1.7,-999.0,1,-99.99,,,0.00,Acu-Link.com,2013-02-12 20:47:00,
2013-02-12 16:02:00,30.0,-59.3,29.69,West,270,3.2,-999.0,1,-99.99,,,0.00,Acu-Link.com,2013-02-12 21:02:00,
2013-02-12 16:17:00,30.0,-59.3,29.70,NW,315,4.2,-999.0,1,-99.99,,,0.00,Acu-Link.com,2013-02-12 21:17:00,
2013-02-12 16:32:00,29.8,-59.4,29.70,NNE,22,4.7,-999.0,1,-99.99,,,0.00,Acu-Link.com,2013-02-12 21:32:00,
2013-02-12 16:47:00,31.5,-58.4,29.68,NE,45,3.2,-999.0,1,-99.99,,,0.00,Acu-Link.com,2013-02-12 21:47:00,
2013-02-12 17:02:00,29.7,-59.5,29.65,NNE,22,7.8,-999.0,1,-99.99,,,0.00,Acu-Link.com,2013-02-12 22:02:00,
2013-02-12 17:17:00,29.8,-59.4,29.67,North,0,7.8,-999.0,1,-99.99,,,0.00,Acu-Link.com,2013-02-12 22:17:00,
2013-02-12 17:32:00,29.8,-59.4,29.66,East,90,2.7,-999.0,1,-99.99,,,0.00,Acu-Link.com,2013-02-12 22:32:00,
2013-02-12 17:48:00,29.5,-59.6,29.67,North,0,9.9,-999.0,1,-99.99,,,0.00,Acu-Link.com,2013-02-12 22:48:00,
2013-02-12 18:03:00,29.1,-59.9,29.69,NNE,22,8.3,-999.0,1,-99.99,,,0.00,Acu-Link.com,2013-02-12 23:03:00,
2013-02-12 18:18:00,28.8,-60.1,29.71,NNE,22,7.8,-999.0,1,-99.99,,,0.00,Acu-Link.com,2013-02-12 23:18:00,
2013-02-12 18:33:00,28.6,-60.2,29.70,NW,315,2.7,-999.0,1,-99.99,,,0.00,Acu-Link.com,2013-02-12 23:33:00,
2013-02-12 18:48:00,28.2,-60.4,29.73,West,270,3.7,-999.0,1,-99.99,,,0.00,Acu-Link.com,2013-02-12 23:48:00,
2013-02-12 19:03:00,28.0,-60.6,29.73,North,0,2.2,-999.0,1,-99.99,,,0.00,Acu-Link.com,2013-02-13 00:03:00,
2013-02-12 19:18:00,27.9,-60.6,29.75,NNW,337,6.8,-999.0,1,-99.99,,,0.00,Acu-Link.com,2013-02-13 00:18:00,
2013-02-12 19:33:00,28.0,-60.6,29.76,NW,315,5.8,-999.0,1,-99.99,,,0.00,Acu-Link.com,2013-02-13 00:33:00,
2013-02-12 19:48:00,27.9,-60.6,29.76,West,270,8.9,-999.0,1,-99.99,,,0.00,Acu-Link.com,2013-02-13 00:48:00,
2013-02-12 20:04:00,27.7,-60.8,29.76,NW,315,1.7,-999.0,1,-99.99,,,0.00,Acu-Link.com,2013-02-13 01:04:00,
2013-02-12 20:19:00,27.5,-60.9,29.78,NNW,337,5.8,-999.0,1,-99.99,,,0.00,Acu-Link.com,2013-02-13 01:19:00,
2013-02-12 20:34:00,27.3,-61.0,29.78,NNW,337,4.7,-999.0,1,-99.99,,,0.00,Acu-Link.com,2013-02-13 01:34:00,
2013-02-12 20:50:00,27.1,-61.1,29.76,NW,315,8.3,-999.0,1,-99.99,,,0.00,Acu-Link.com,2013-02-13 01:50:00,
2013-02-12 21:05:00,27.1,-61.1,29.75,West,270,3.2,-999.0,1,-99.99,,,0.00,Acu-Link.com,2013-02-13 02:05:00,
2013-02-12 21:21:00,27.0,-61.2,29.73,NNW,337,4.7,-999.0,1,-99.99,,,0.00,Acu-Link.com,2013-02-13 02:21:00,
2013-02-12 21:36:00,26.6,-61.4,29.74,West,270,4.2,-999.0,1,-99.99,,,0.00,Acu-Link.com,2013-02-13 02:36:00,
2013-02-12 21:51:00,26.2,-61.7,29.74,NNE,22,3.7,-999.0,1,-99.99,,,0.00,Acu-Link.com,2013-02-13 02:51:00,
2013-02-12 22:06:00,26.2,-61.7,29.73,NE,45,5.3,-999.0,1,-99.99,,,0.00,Acu-Link.com,2013-02-13 03:06:00,
2013-02-12 22:21:00,25.9,-61.9,29.72,NE,45,9.9,-999.0,1,-99.99,,,0.00,Acu-Link.com,2013-02-13 03:21:00,
2013-02-12 22:37:00,25.7,-62.0,29.72,NW,315,6.3,-999.0,1,-99.99,,,0.00,Acu-Link.com,2013-02-13 03:37:00,
2013-02-12 22:52:00,25.7,-62.0,29.72,NNW,337,3.2,-999.0,1,-99.99,,,0.00,Acu-Link.com,2013-02-13 03:52:00,
2013-02-12 23:07:00,25.9,-61.9,29.74,NNW,337,6.3,-999.0,1,-99.99,,,0.00,Acu-Link.com,2013-02-13 04:07:00,
2013-02-12 23:23:00,25.7,-62.0,29.74,North,0,4.2,-999.0,1,-99.99,,,0.00,Acu-Link.com,2013-02-13 04:23:00,
2013-02-12 23:38:00,25.7,-62.0,29.74,NW,315,5.3,-999.0,1,-99.99,,,0.00,Acu-Link.com,2013-02-13 04:38:00,
2013-02-12 23:53:00,25.7,-62.0,29.74,NW,315,3.7,-999.0,1,-99.99,,,0.00,Acu-Link.com,2013-02-13 04:53:00,